Probability
42 61 65 65 68 68 68 68 68 61 68 61 58 58 55 52 52 52 45 39 39 42 35 29 23 19 19 19 13 13 13 16 13 10 6 3 3 6 10 10 10 3 6
45 55 61 68 68 68 68 65 61 61 58 58 55 55 55 58 55 55 52 45 42 39 35 26 16 13 19 16 10 13 13 10 6 6 3 3 3 6 6 13 13 10 13
42 55 52 71 68 68 61 58 61 61 61 61 55 55 58 58 55 55 45 42 39 35 32 19 16 13 10 13 10 10 10 6 6 3 3 0 3 6 6 3 10 13 13
42 52 61 68 68 65 61 61 58 58 58 55 55 48 52 52 52 45 42 39 39 35 29 26 23 19 10 10 10 10 13 13 10 3 0 0 0 3 6 3 3 10 6
42 48 55 65 61 55 55 55 55 55 55 48 48 45 45 39 39 35 39 35 39 39 35 32 23 19 3 6 3 3 3 6 10 0 0 0 0 3 6 6 3 10 6
45 48 55 58 61 48 48 48 48 48 48 45 45 42 42 42 35 35 29 29 29 29 29 19 23 16 13 16 3 3 3 3 3 3 6 3 3 3 6 6 6 6 3
48 48 35 48 48 45 48 48 48 48 45 39 39 35 32 35 32 26 23 23 19 19 16 6 6 6 10 10 3 3 3 3 0 0 3 0 0 3 3 3 3 3 3
42 39 35 45 48 45 45 39 39 45 35 35 32 32 29 26 26 16 16 19 16 13 6 6 6 6 6 3 3 3 3 3 0 0 3 0 0 0 0 3 3 3 3
39 35 35 35 35 35 39 39 35 35 35 29 23 23 23 23 19 16 16 16 13 6 6 3 3 3 3 3 3 3 3 3 0 3 0 0 0 0 0 0 0 0 0
29 32 32 32 32 35 29 29 29 26 19 19 16 16 13 13 16 13 13 13 10 6 6 6 6 3 0 3 3 3 3 0 3 0 0 0 3 3 3 0 0 0 0
29 29 29 29 29 29 26 23 19 16 16 16 13 3 6 10 10 10 6 6 6 6 6 6 6 6 3 0 3 3 0 3 3 0 0 0 0 0 0 0 0 3 0
29 29 29 29 29 29 29 26 23 16 10 6 10 13 13 16 10 3 0 3 6 6 6 6 6 6 0 0 3 3 3 3 3 3 3 0 0 0 0 0 0 0 0
29 29 29 29 29 29 19 19 13 10 10 10 6 6 6 6 10 3 3 3 6 3 6 6 3 0 0 0 3 3 3 3 3 3 3 0 0 0 0 0 0 0 0
26 29 29 29 29 23 19 13 13 10 10 10 10 10 10 10 6 10 6 6 6 6 6 6 3 3 0 0 0 0 3 3 3 3 3 0 0 0 0 0 0 3 0
23 19 19 19 13 16 13 13 10 10 6 6 10 6 6 6 6 3 0 3 3 3 3 3 3 3 0 0 0 0 0 0 0 3 3 0 0 0 0 3 3 3 3
23 16 13 13 16 10 10 10 10 3 3 3 3 0 3 3 3 3 0 0 0 3 3 3 3 3 3 3 0 0 0 0 0 3 3 0 0 0 0 3 3 3 3
19 10 13 13 13 6 3 3 0 0 0 0 0 0 0 0 0 3 0 0 0 0 0 3 3 3 3 3 3 0 0 0 0 0 3 3 0 0 0 0 3 3 3
16 13 10 3 6 3 0 0 0 0 0 0 0 0 0 0 0 0 0 0 0 0 0 0 0 3 3 3 3 3 3 0 0 0 0 3 3 0 0 0 0 3 3
13 10 3 0 0 0 0 0 0 0 0 0 0 0 0 0 0 0 0 0 0 0 0 0 0 0 0 0 0 0 3 0 0 0 0 0 0 0 0 0 0 0 3
3 3 6 0 0 0 0 0 0 0 0 0 0 0 0 0 0 0 0 0 0 0 0 0 0 0 0 0 0 0 0 0 0 0 0 0 0 0 0 0 0 0 0
3 3 3 0 0 0 0 0 0 0 0 0 0 0 0 0 0 0 0 0 0 0 0 0 0 0 0 0 0 0 0 0 0 0 0 0 0 0 0 0 0 0 0
3 3 3 3 0 0 0 0 0 0 0 0 0 0 0 0 0 0 0 0 0 0 0 0 0 0 0 0 0 0 0 0 0 0 0 0 0 0 0 0 0 0 0
3 3 3 3 3 0 0 0 0 0 0 0 0 0 0 0 0 0 0 0 0 0 0 0 0 0 0 0 0 0 0 0 0 0 0 0 0 0 0 0 0 0 0
3 3 3 3 3 3 0 0 0 0 0 0 0 0 0 0 0 0 0 0 0 0 0 0 0 0 0 0 0 0 0 0 0 0 0 0 0 0 0 0 0 0 0
0 3 3 3 3 3 3 0 0 0 0 0 0 0 0 0 0 0 0 0 0 0 0 0 0 0 0 0 0 0 0 0 0 0 0 0 0 0 0 0 0 0 0
0 0 3 3 3 3 3 3 0 0 0 0 0 0 0 0 0 0 0 0 0 0 0 0 0 0 0 0 0 0 0 0 0 0 0 0 0 0 0 0 0 0 0
Height
5873 5874 5875 5876 5876 5877 5877 5878 5878 5879 5879 5879 5879 5879 5879 5879 5879 5878 5878 5877 5877 5877 5876 5875 5875 5874 5873 5873 5872 5871 5871 5870 5869 5867 5866 5865 5864 5863 5862 5861 5860 5859 5858
5871 5872 5873 5874 5874 5875 5875 5876 5877 5877 5877 5877 5877 5877 5877 5877 5877 5877 5876 5876 5875 5875 5874 5874 5873 5872 5872 5871 5870 5869 5868 5867 5866 5865 5864 5863 5862 5861 5860 5859 5858 5857 5855
5868 5869 5870 5871 5872 5873 5873 5874 5874 5875 5875 5875 5875 5875 5875 5875 5875 5875 5874 5874 5874 5873 5872 5872 5871 5870 5870 5869 5868 5867 5866 5865 5864 5863 5862 5860 5859 5858 5857 5856 5855 5853 5852
5866 5867 5868 5869 5870 5870 5871 5872 5872 5873 5873 5873 5873 5873 5873 5873 5873 5873 5872 5872 5871 5871 5870 5870 5869 5868 5868 5867 5866 5865 5864 5862 5861 5860 5859 5858 5856 5855 5854 5853 5851 5850 5849
5862 5864 5865 5866 5867 5868 5869 5869 5870 5870 5870 5871 5871 5871 5871 5871 5871 5871 5870 5870 5869 5869 5868 5867 5867 5866 5865 5864 5863 5862 5861 5860 5859 5857 5856 5855 5853 5852 5851 5849 5848 5847 5845
5859 5860 5861 5863 5864 5865 5866 5866 5867 5867 5868 5868 5868 5868 5868 5868 5868 5868 5868 5867 5867 5866 5866 5865 5864 5863 5862 5861 5860 5859 5858 5857 5855 5854 5853 5852 5850 5849 5847 5846 5844 5843 5841
5855 5857 5858 5859 5860 5862 5862 5863 5864 5864 5865 5865 5865 5865 5866 5866 5866 5865 5865 5865 5864 5863 5863 5862 5861 5860 5859 5858 5857 5856 5855 5854 5852 5851 5849 5848 5847 5845 5844 5842 5841 5839 5837
5852 5853 5854 5855 5857 5858 5859 5860 5861 5861 5862 5862 5862 5862 5863 5863 5863 5862 5862 5862 5861 5860 5860 5859 5858 5857 5856 5855 5854 5853 5851 5850 5849 5847 5846 5845 5843 5841 5840 5838 5836 5835 5833
5847 5849 5850 5851 5853 5854 5855 5856 5857 5858 5858 5859 5859 5859 5859 5859 5859 5859 5859 5858 5858 5857 5856 5856 5855 5854 5853 5851 5850 5849 5848 5846 5845 5843 5842 5840 5839 5837 5835 5833 5832 5830 5828
5843 5845 5846 5848 5849 5850 5851 5852 5853 5854 5855 5855 5855 5856 5856 5856 5856 5855 5855 5855 5854 5854 5853 5852 5851 5850 5849 5847 5846 5845 5844 5842 5841 5839 5838 5836 5834 5832 5830 5828 5826 5824 5822
5839 5840 5842 5843 5845 5846 5847 5848 5849 5850 5850 5851 5851 5852 5852 5852 5852 5852 5851 5851 5850 5849 5849 5848 5847 5846 5845 5843 5842 5841 5839 5838 5836 5835 5833 5831 5829 5827 5825 5823 5821 5818 5816
5834 5836 5837 5839 5840 5842 5843 5844 5845 5846 5846 5847 5847 5848 5848 5848 5848 5848 5847 5847 5846 5845 5844 5843 5842 5841 5840 5839 5838 5836 5835 5833 5831 5830 5828 5826 5824 5822 5819 5817 5815 5812 5810
5828 5831 5832 5834 5836 5837 5838 5839 5840 5841 5842 5842 5843 5843 5843 5843 5843 5843 5843 5842 5842 5841 5840 5839 5838 5837 5836 5834 5833 5831 5830 5828 5826 5824 5822 5820 5818 5816 5813 5811 5808 5806 5803
5823 5825 5827 5829 5831 5832 5833 5835 5836 5837 5837 5838 5838 5839 5839 5839 5839 5839 5838 5838 5837 5836 5836 5835 5833 5832 5831 5829 5828 5826 5824 5822 5820 5818 5816 5814 5812 5809 5806 5804 5801 5798 5796
5817 5820 5822 5824 5825 5827 5828 5830 5831 5832 5833 5833 5833 5834 5834 5834 5834 5834 5834 5833 5832 5832 5831 5830 5828 5827 5826 5824 5822 5821 5819 5816 5814 5812 5810 5807 5805 5802 5799 5797 5794 5791 5788
5811 5814 5816 5818 5820 5821 5823 5824 5826 5827 5827 5828 5828 5829 5829 5829 5829 5829 5829 5828 5828 5827 5826 5824 5823 5822 5820 5818 5817 5815 5813 5810 5808 5805 5803 5800 5798 5795 5792 5789 5785 5782 5779
5805 5808 5810 5812 5814 5816 5817 5819 5820 5821 5822 5823 5823 5824 5824 5824 5824 5824 5824 5823 5822 5821 5820 5819 5818 5816 5815 5813 5811 5809 5806 5804 5801 5798 5796 5793 5790 5787 5783 5780 5776 5773 5770
5798 5801 5803 5806 5808 5810 5811 5813 5814 5815 5816 5817 5818 5818 5819 5819 5819 5819 5818 5818 5817 5816 5815 5813 5812 5810 5809 5807 5805 5802 5800 5797 5794 5791 5788 5785 5781 5778 5774 5771 5767 5763 5760
5791 5794 5797 5799 5801 5803 5805 5807 5808 5809 5811 5812 5812 5813 5813 5813 5813 5813 5812 5812 5811 5810 5808 5807 5806 5804 5802 5800 5798 5796 5793 5790 5787 5784 5780 5776 5772 5769 5765 5761 5757 5753 5749
5784 5787 5790 5793 5795 5797 5799 5800 5802 5803 5805 5806 5806 5807 5807 5807 5807 5807 5806 5805 5805 5803 5802 5801 5799 5797 5795 5793 5791 5789 5786 5783 5779 5775 5772 5768 5764 5759 5755 5751 5747 5743 5739
5777 5780 5783 5786 5788 5791 5793 5794 5796 5797 5798 5799 5800 5800 5801 5801 5801 5800 5800 5799 5798 5797 5796 5794 5792 5790 5788 5786 5783 5781 5778 5775 5772 5767 5763 5759 5754 5750 5745 5740 5736 5732 5727
5770 5773 5776 5779 5782 5784 5786 5788 5789 5790 5792 5793 5793 5794 5794 5794 5794 5793 5793 5792 5791 5790 5788 5787 5785 5783 5780 5777 5775 5772 5770 5768 5763 5759 5754 5749 5744 5739 5734 5729 5725 5720 5715
5762 5766 5769 5772 5774 5777 5779 5781 5782 5784 5785 5786 5787 5787 5787 5787 5787 5786 5786 5785 5784 5783 5781 5779 5777 5774 5772 5769 5766 5762 5759 5757 5754 5751 5745 5739 5734 5728 5723 5718 5714 5708 5703
5755 5758 5761 5764 5767 5769 5772 5773 5775 5777 5778 5779 5779 5780 5780 5780 5780 5779 5779 5778 5776 5775 5773 5771 5769 5766 5763 5761 5757 5753 5750 5745 5742 5740 5736 5729 5723 5717 5712 5707 5702 5697 5691
5747 5750 5753 5756 5759 5762 5764 5766 5768 5769 5770 5771 5772 5772 5772 5772 5772 5771 5771 5770 5768 5767 5765 5762 5760 5757 5754 5751 5748 5744 5740 5735 5730 5727 5724 5720 5714 5707 5701 5695 5690 5684 5679
5738 5742 5745 5748 5751 5754 5756 5758 5760 5761 5762 5763 5764 5764 5764 5764 5764 5763 5762 5761 5760 5758 5756 5754 5751 5748 5745 5741 5738 5734 5729 5725 5720 5715 5712 5708 5703 5697 5690 5684 5678 5672 5666
Wind_Speed
13 12 11 11 11 10 10 9 9 9 9 9 8 8 8 8 8 8 8 8 8 8 9 9 9 10 10 10 11 11 12 12 13 14 14 14 15 15 15 15 16 16 16
14 13 13 12 12 12 11 11 10 11 10 10 10 10 10 10 9 9 10 10 10 10 11 11 11 11 11 12 12 13 13 14 14 15 15 16 16 16 16 16 16 16 17
16 15 14 14 13 13 13 12 12 12 12 12 12 11 11 11 11 11 11 11 11 12 12 12 12 13 13 13 14 14 15 15 16 16 17 17 17 17 17 17 18 18 18
17 16 16 15 15 14 14 14 14 13 13 13 13 13 13 12 12 13 12 13 13 13 13 13 14 14 14 15 15 16 16 16 17 17 17 17 17 18 18 18 18 19 19
18 18 17 17 16 16 15 15 15 15 15 14 14 14 14 14 14 14 14 14 14 14 14 14 15 15 16 16 16 17 17 17 17 18 18 18 18 18 19 19 20 20 20
19 19 18 18 18 17 17 17 16 16 16 16 15 15 15 15 15 15 15 15 15 15 15 16 16 16 17 17 17 17 17 18 18 19 19 19 19 20 20 21 21 21 21
21 20 20 19 19 19 18 18 17 17 17 17 17 17 17 16 17 16 16 16 16 16 16 16 17 17 17 17 17 18 18 19 19 19 20 20 21 21 21 22 22 23 23
22 22 21 20 20 20 19 19 18 18 18 18 18 17 17 17 17 17 17 17 17 17 17 17 17 18 18 18 19 19 19 20 20 20 21 22 22 22 23 24 24 24 25
24 23 22 22 21 21 21 20 19 19 19 19 19 18 18 18 18 18 18 18 18 18 18 18 18 19 19 20 20 20 20 21 21 21 22 23 23 23 24 25 26 27 27
25 24 23 23 22 22 22 21 21 21 20 20 19 20 20 19 19 19 19 19 19 20 20 20 20 20 20 20 20 21 21 22 22 23 24 24 25 25 26 27 28 28 29
26 25 24 24 23 23 23 22 22 22 22 21 21 21 21 20 20 20 20 20 21 21 21 21 21 21 21 21 22 23 23 23 24 25 25 26 27 27 28 29 30 30 30
27 26 26 25 25 24 24 23 23 23 23 22 22 22 22 22 22 22 22 22 22 22 22 22 22 22 23 23 24 24 24 25 26 26 27 28 29 29 30 31 31 32 32
28 28 27 27 26 25 25 24 24 24 23 24 23 23 23 23 23 23 23 23 23 23 23 23 23 24 24 24 25 25 25 26 27 28 29 30 30 31 32 32 33 33 34
29 29 28 27 27 26 26 25 25 25 24 25 25 24 23 23 23 23 23 23 23 24 24 24 24 25 25 25 26 26 27 28 29 29 30 31 32 32 33 34 34 35 35
31 30 29 29 28 28 27 27 26 26 26 25 25 24 24 24 24 24 24 24 24 24 24 25 25 26 26 27 27 28 29 30 31 32 32 33 33 34 35 35 36 37 37
33 32 31 31 30 30 29 28 27 27 27 26 26 25 25 25 25 25 25 25 25 25 25 26 26 27 28 29 29 30 31 31 32 33 34 34 35 36 37 37 38 39 40
34 33 33 32 32 31 31 30 29 28 28 27 27 26 25 25 25 26 26 26 26 26 27 27 28 29 29 30 31 31 32 33 34 35 36 36 37 38 39 40 40 41 41
35 34 34 33 33 32 31 31 30 30 29 28 27 27 27 27 27 27 27 27 28 28 28 29 29 30 30 31 32 33 34 35 36 36 37 38 39 40 41 41 42 42 43
36 36 35 34 33 33 32 31 30 30 29 29 28 28 28 28 28 28 29 29 29 30 30 30 31 31 32 32 33 34 35 36 37 38 39 40 41 42 42 43 44 45 46
37 36 35 34 34 33 32 31 30 30 30 29 29 29 29 29 30 30 30 30 30 30 31 31 32 33 34 34 35 36 37 38 39 40 41 42 42 43 44 45 46 47 47
38 36 35 34 34 33 32 31 31 31 30 30 30 30 30 30 30 31 31 31 31 31 32 33 33 34 35 36 37 37 38 39 40 41 42 43 44 45 46 47 47 48 48
38 37 36 36 35 34 33 32 32 32 31 31 31 31 31 31 31 32 32 32 32 33 33 34 35 36 37 38 39 39 40 41 41 42 44 45 46 47 47 48 48 48 48
38 38 37 37 36 35 34 34 33 33 32 32 32 32 32 32 33 33 33 34 34 34 35 36 37 38 38 39 40 41 42 43 43 44 45 46 47 47 48 49 50 50 50
39 38 38 37 37 36 35 35 34 34 34 34 34 34 34 34 34 34 35 35 35 36 37 38 39 39 40 40 41 43 44 45 46 46 45 47 48 48 49 50 51 51 52
39 39 39 38 37 37 36 36 35 35 35 35 36 36 35 36 36 36 36 36 37 38 39 40 40 40 41 42 43 44 46 47 47 48 47 47 48 49 50 51 52 52 53
40 40 39 39 38 37 37 37 37 36 36 36 37 37 37 37 37 37 37 38 39 40 40 41 41 42 43 44 45 46 47 48 48 48 48 48 48 49 50 51 52 52 53
Wind_Direction
238 239 238 240 241 243 246 247 248 250 250 252 255 258 260 265 268 274 277 279 283 285 287 288 289 290 291 292 293 295 296 297 297 298 298 298 298 298 297 297 298 299 300
239 239 239 240 242 244 247 249 251 253 253 255 258 260 261 264 266 270 274 278 281 284 286 289 290 291 291 291 292 293 294 295 296 297 297 297 297 297 297 297 297 298 297
240 241 241 242 243 245 248 250 252 254 255 256 258 260 262 263 265 268 274 277 279 282 286 288 289 291 292 291 291 291 292 293 296 296 297 296 296 296 296 296 297 297 296
242 242 244 244 246 247 249 250 253 255 256 257 259 260 262 264 266 270 273 276 278 281 285 286 288 289 291 291 291 291 292 294 296 297 297 296 296 296 296 296 297 297 297
243 244 245 246 248 249 250 250 252 254 257 258 259 261 264 265 267 270 273 275 277 280 283 283 285 288 289 290 291 292 292 293 294 295 296 296 296 296 296 297 297 297 297
243 244 246 247 248 249 250 251 253 255 257 258 259 262 264 266 268 270 274 275 276 279 281 282 283 285 288 289 290 291 291 292 293 294 295 295 296 296 296 296 296 296 296
242 244 246 246 248 249 250 252 254 255 257 259 261 262 264 266 269 271 274 275 276 278 279 280 283 285 286 287 288 290 291 291 292 293 294 295 295 295 296 296 296 295 295
242 244 246 246 247 249 250 252 254 255 256 258 261 262 263 266 268 271 273 275 276 278 278 280 282 283 284 286 288 289 290 291 292 293 294 294 295 295 296 296 296 296 296
242 244 246 246 247 248 250 252 254 255 257 258 260 261 263 265 268 270 273 275 276 277 278 280 282 283 284 286 288 289 289 290 291 293 294 294 295 295 295 296 295 294 295
242 244 245 246 247 248 250 253 254 255 257 258 260 262 264 266 267 270 273 274 275 276 278 280 281 283 285 286 287 288 289 290 291 292 293 293 294 295 295 296 296 295 294
241 243 245 246 247 248 250 252 253 255 256 257 259 262 265 266 269 271 274 274 276 277 279 280 282 282 283 285 286 287 288 289 290 291 292 292 293 293 295 295 295 295 294
240 241 243 245 247 248 249 251 252 254 255 257 259 261 264 267 270 271 273 274 276 278 280 281 283 283 283 284 285 286 287 288 290 291 292 292 293 293 294 295 295 294 294
239 240 242 244 246 247 249 250 252 253 255 258 259 262 264 267 270 271 272 274 276 277 279 280 282 284 284 285 285 286 287 289 291 291 292 292 293 293 294 294 294 294 294
239 240 241 243 245 247 248 250 252 253 255 258 261 262 264 267 270 271 273 274 276 278 279 280 282 283 284 284 286 287 287 289 290 291 292 292 293 293 294 294 294 294 294
239 240 241 242 244 247 249 250 252 254 256 258 261 261 263 266 268 270 273 276 277 278 279 281 281 282 284 285 287 288 289 290 291 292 293 293 293 294 294 295 294 294 294
238 240 241 242 244 246 248 250 251 254 256 257 260 262 264 266 268 270 273 275 277 278 279 280 281 283 285 286 287 288 290 291 292 293 294 294 294 294 294 294 294 294 293
238 240 242 243 245 247 249 251 252 253 255 257 259 261 263 266 269 271 274 276 277 278 280 281 282 283 285 286 288 289 291 292 293 294 295 295 294 294 294 294 294 294 294
238 240 242 243 245 247 249 251 252 253 254 256 258 261 263 266 269 272 274 276 276 278 279 281 282 284 286 287 289 290 291 292 293 294 295 296 295 295 295 295 295 295 295
238 239 241 243 244 246 248 250 251 252 254 256 258 261 264 267 269 272 274 275 276 278 279 281 283 284 286 287 289 290 291 292 294 295 295 296 296 296 296 295 295 295 295
237 239 240 242 244 246 247 249 250 252 254 257 259 261 264 267 270 272 273 275 276 278 280 282 284 286 287 288 289 290 291 293 294 295 296 296 296 297 296 296 296 296 295
237 238 240 241 243 245 246 248 250 252 254 257 260 262 265 267 269 271 273 275 276 279 281 283 285 286 288 289 289 290 291 292 294 295 295 296 296 297 297 297 297 296 296
236 237 239 240 243 245 246 248 250 253 255 258 261 263 266 267 269 271 272 275 277 279 282 284 285 287 288 289 290 290 291 292 294 295 296 296 297 297 297 297 297 297 296
235 236 238 241 243 245 247 249 251 254 257 259 262 264 266 267 269 271 273 275 278 280 282 285 286 288 289 290 291 292 293 294 294 295 296 297 297 297 297 297 297 297 297
234 236 238 241 243 245 247 250 252 255 257 260 262 264 266 268 270 272 274 276 278 281 283 286 288 289 290 290 291 292 294 295 296 297 297 298 298 298 298 298 298 298 299
234 236 238 241 243 245 248 250 253 255 258 260 262 264 267 269 271 272 275 277 279 281 284 286 288 289 290 291 292 293 295 296 297 297 298 298 298 299 300 300 300 300 300
235 236 239 241 243 246 248 251 253 256 258 261 263 265 267 269 271 273 276 278 280 282 284 286 288 290 290 291 293 294 295 296 297 298 298 299 299 299 300 300 300 300 301